Roanoke, VA

8:21 AM EST on December 07, 2016 (GMT -0500)
Roanoke Regional-Woodrum

Weather History for KROA - June, 2013

Change the Weather History Date:

Saturday, June 29, 2013

  Actual Average Record
Temperature  
Mean Temperature 76 °F 76 °F  
Max Temperature 84 °F 86 °F 104 °F (2012)
Min Temperature 67 °F 65 °F 44 °F (1919)
Degree Days  
Heating Degree Days 0 0  
Month to date heating degree days 1 9  
Since 1 June heating degree days 1 9  
Since 1 July heating degree days 4001 4142  
Cooling Degree Days 11 11  
Month to date cooling degree days 255 236  
Year to date cooling degree days 405 352  
Since 1 June cooling degree days 255 236  
Growing Degree Days 25 (Base 50)    
Moisture  
Dew Point 63 °F    
Average Humidity 69    
Maximum Humidity 90    
Minimum Humidity 47    
Precipitation  
Precipitation 0.18 in 0.12 in 3.23 in (1949)
Month to date precipitation 6.40 3.71  
Year to date precipitation 26.94 20.41  
Snow  
Snow 0.00 in - - ()
Month to date snowfall 0.0  
Since 1 June snowfall 0.0  
Since 1 July snowfall 18.3  
Snow Depth 0.00 in    
Sea Level Pressure  
Sea Level Pressure 29.65 in    
Wind  
Wind Speed 7 mph (WSW)    
Max Wind Speed 17 mph    
Max Gust Speed 25 mph    
Visibility 10 miles    
Events Rain    
T = Trace of Precipitation, MM = Missing Value Source: NWS Daily Summary

Daily Weather History Graph

Daily Weather History Graph

Search for Another Location

Airport or City:

Trip Planner

Search our weather history database for the weather conditions in past years. The results will help you decide how hot, cold, wet, or windy it might be!

Date:

Astronomy

Jun. 29, 2013 Rise Set
Actual Time 6:02 AM EDT 8:44 PM EDT
Civil Twilight 5:31 AM EDT 9:15 PM EDT
Nautical Twilight 4:52 AM EDT 9:54 PM EDT
Astronomical Twilight 4:09 AM EDT 10:37 PM EDT
Moon 12:21 AM EDT (6/29) 1:02 PM EDT (6/29)
Length of Visible Light 15h 44m
Length of Day
14h 42m
Waning Gibbous, 56% of the Moon is Illuminated
Jun 29
Waning Gibbous
Jun 30
Last Quarter
Jul 8
New
Jul 15
First Quarter
Jul 22
Full

Hourly Weather History & Observations

Time (EDT) Temp. Heat Index Dew Point Humidity Pressure Visibility Wind Dir Wind Speed Gust Speed Precip Events Conditions
12:54 AM 73.9 °F - 63.0 °F 68% 29.62 in 10.0 mi West 10.4 mph - N/A   Partly Cloudy
1:54 AM 73.0 °F - 62.1 °F 68% 29.61 in 10.0 mi WNW 10.4 mph - N/A   Partly Cloudy
2:54 AM 69.1 °F - 62.1 °F 78% 29.61 in 10.0 mi NNW 9.2 mph - N/A   Partly Cloudy
3:54 AM 68.0 °F - 62.1 °F 81% 29.60 in 10.0 mi West 6.9 mph - N/A   Partly Cloudy
4:54 AM 66.9 °F - 61.0 °F 81% 29.61 in 10.0 mi West 5.8 mph - N/A   Clear
5:54 AM 68.0 °F - 61.0 °F 78% 29.63 in 10.0 mi WSW 4.6 mph - N/A   Scattered Clouds
6:54 AM 68.0 °F - 62.1 °F 81% 29.65 in 10.0 mi NNW 3.5 mph - N/A   Scattered Clouds
7:54 AM 70.0 °F - 63.0 °F 78% 29.66 in 10.0 mi Calm Calm - N/A   Scattered Clouds
8:54 AM 72.0 °F - 63.0 °F 73% 29.66 in 10.0 mi Calm Calm - N/A   Scattered Clouds
9:54 AM 71.1 °F - 64.0 °F 78% 29.68 in 10.0 mi WSW 4.6 mph - 0.01 in Rain Light Rain
10:54 AM 73.0 °F - 64.0 °F 73% 29.68 in 10.0 mi SW 10.4 mph - 0.00 in   Mostly Cloudy
11:54 AM 75.9 °F - 63.0 °F 64% 29.68 in 10.0 mi SW 9.2 mph - N/A   Scattered Clouds
12:54 PM 79.0 °F - 63.0 °F 58% 29.67 in 10.0 mi SSE 5.8 mph - N/A   Scattered Clouds
1:54 PM 82.9 °F 83.3 °F 61.0 °F 47% 29.65 in 10.0 mi South 6.9 mph - N/A   Partly Cloudy
2:54 PM 82.0 °F 83.0 °F 62.1 °F 51% 29.64 in 10.0 mi SSE 10.4 mph - N/A   Mostly Cloudy
3:54 PM 84.0 °F 84.9 °F 63.0 °F 49% 29.63 in 10.0 mi Variable 4.6 mph - N/A   Mostly Cloudy
4:54 PM 82.9 °F 84.0 °F 63.0 °F 51% 29.64 in 10.0 mi South 10.4 mph - N/A   Mostly Cloudy
5:54 PM 82.0 °F 83.1 °F 63.0 °F 52% 29.63 in 10.0 mi South 12.7 mph 18.4 mph N/A   Scattered Clouds
6:54 PM 82.9 °F 84.4 °F 64.0 °F 53% 29.64 in 10.0 mi South 8.1 mph - N/A   Mostly Cloudy
7:54 PM 80.1 °F 81.9 °F 64.9 °F 60% 29.67 in 10.0 mi SSW 13.8 mph 19.6 mph N/A   Mostly Cloudy
8:54 PM 73.0 °F - 66.0 °F 79% 29.68 in 9.0 mi WNW 12.7 mph 20.7 mph 0.09 in Rain Light Rain
9:54 PM 71.1 °F - 66.9 °F 87% 29.71 in 10.0 mi NE 4.6 mph - 0.04 in   Mostly Cloudy
10:54 PM 71.1 °F - 66.0 °F 84% 29.73 in 10.0 mi North 3.5 mph - N/A   Mostly Cloudy
11:54 PM 70.0 °F - 66.9 °F 90% 29.73 in 10.0 mi Calm Calm - N/A   Partly Cloudy